Radiation Dose at Monitoring Post of Fukushima Daini Nuclear Power Station
Date,Time,MP-1(microSv/h),MP-2(microSv/h),MP-3(microSv/h),MP-4(microSv/h),MP-5(microSv/h),MP-6(microSv/h),MP-7(microSv/h),Wind Direction,Wind Velocity(m/s),Rain
2014/11/05,00:00,0.619,0.416,0.655,0.592,0.591,0.273,0.240,south,0.5,No
2014/11/05,00:10,0.619,0.416,0.653,0.592,0.590,0.271,0.240,-,CALM,No
2014/11/05,00:20,0.621,0.415,0.652,0.591,0.589,0.273,0.239,-,CALM,No
2014/11/05,00:30,0.619,0.417,0.654,0.592,0.589,0.272,0.240,northeast,0.7,No
2014/11/05,00:40,0.620,0.416,0.655,0.591,0.590,0.274,0.239,north,1.3,No
2014/11/05,00:50,0.620,0.417,0.654,0.593,0.589,0.272,0.239,north,0.7,No
2014/11/05,01:00,0.620,0.417,0.655,0.592,0.590,0.272,0.240,north,0.6,No
2014/11/05,01:10,0.620,0.416,0.655,0.592,0.590,0.274,0.239,-,CALM,No
2014/11/05,01:20,0.619,0.416,0.655,0.592,0.589,0.272,0.239,east,0.6,No
2014/11/05,01:30,0.619,0.416,0.654,0.591,0.590,0.272,0.240,north-northeast,1.2,No
2014/11/05,01:40,0.620,0.416,0.653,0.592,0.590,0.273,0.239,northeast,1.9,No
2014/11/05,01:50,0.617,0.416,0.654,0.591,0.590,0.273,0.239,northeast,1.5,No
2014/11/05,02:00,0.619,0.417,0.655,0.593,0.590,0.272,0.240,northeast,1.7,No
2014/11/05,02:10,0.619,0.416,0.654,0.592,0.589,0.273,0.239,north-northeast,1.4,No
2014/11/05,02:20,0.621,0.416,0.654,0.592,0.590,0.271,0.238,north,1.5,No
2014/11/05,02:30,0.618,0.417,0.656,0.591,0.590,0.272,0.240,north,1.2,No
2014/11/05,02:40,0.620,0.417,0.652,0.592,0.589,0.272,0.241,north-northeast,2.4,No
2014/11/05,02:50,0.619,0.418,0.654,0.593,0.591,0.273,0.239,north-northeast,2.8,No
2014/11/05,03:00,0.619,0.416,0.655,0.592,0.591,0.272,0.238,north,2.7,No
2014/11/05,03:10,0.618,0.416,0.656,0.594,0.591,0.272,0.239,north,2.2,No
2014/11/05,03:20,0.620,0.417,0.657,0.592,0.590,0.272,0.241,north,2.6,No
2014/11/05,03:30,0.619,0.418,0.655,0.592,0.590,0.273,0.238,north,2.4,No
2014/11/05,03:40,0.619,0.418,0.655,0.593,0.590,0.274,0.239,north,3.5,No
2014/11/05,03:50,0.619,0.418,0.655,0.594,0.590,0.272,0.239,north,3.7,No
2014/11/05,04:00,0.621,0.417,0.655,0.592,0.591,0.273,0.240,north-northwest,3.4,No
2014/11/05,04:10,0.618,0.417,0.655,0.595,0.591,0.272,0.240,north-northwest,3.2,No
2014/11/05,04:20,0.619,0.417,0.654,0.593,0.589,0.273,0.240,north,3.5,No
2014/11/05,04:30,0.620,0.417,0.654,0.592,0.588,0.272,0.239,north-northwest,4.4,No
2014/11/05,04:40,0.619,0.417,0.656,0.592,0.589,0.273,0.239,north-northwest,4.4,No
2014/11/05,04:50,0.618,0.417,0.654,0.594,0.590,0.272,0.241,north-northwest,4.0,No
2014/11/05,05:00,0.620,0.417,0.655,0.594,0.590,0.272,0.239,north-northwest,4.6,No
2014/11/05,05:10,0.619,0.418,0.657,0.592,0.591,0.272,0.238,north-northwest,4.2,No
2014/11/05,05:20,0.619,0.418,0.655,0.592,0.590,0.271,0.241,north-northwest,4.5,No
2014/11/05,05:30,0.620,0.417,0.655,0.594,0.589,0.272,0.238,north-northwest,3.1,No
2014/11/05,05:40,0.619,0.416,0.655,0.594,0.589,0.272,0.240,north-northwest,3.8,No
2014/11/05,05:50,0.620,0.416,0.655,0.594,0.590,0.271,0.240,north-northwest,3.8,No
2014/11/05,06:00,0.621,0.417,0.655,0.594,0.589,0.272,0.240,north-northwest,2.8,No
2014/11/05,06:10,0.620,0.417,0.656,0.595,0.591,0.271,0.239,north-northwest,2.4,No
2014/11/05,06:20,0.621,0.416,0.655,0.593,0.590,0.271,0.238,north-northwest,1.7,No
2014/11/05,06:30,0.620,0.418,0.656,0.594,0.590,0.272,0.240,north-northwest,2.8,No
2014/11/05,06:40,0.621,0.418,0.656,0.593,0.590,0.272,0.239,north-northwest,2.7,No
2014/11/05,06:50,0.621,0.417,0.656,0.594,0.589,0.272,0.240,north-northwest,2.5,No
2014/11/05,07:00,0.620,0.417,0.657,0.596,0.590,0.273,0.238,north-northwest,2.0,No
2014/11/05,07:10,0.621,0.417,0.657,0.595,0.590,0.272,0.241,north,3.1,No
2014/11/05,07:20,0.620,0.416,0.656,0.595,0.590,0.272,0.240,north,1.7,No
2014/11/05,07:30,0.620,0.418,0.657,0.595,0.590,0.272,0.238,north-northwest,2.5,No
2014/11/05,07:40,0.619,0.418,0.656,0.594,0.590,0.273,0.240,north,2.8,No
2014/11/05,07:50,0.619,0.420,0.657,0.593,0.592,0.274,0.240,north,3.0,No
2014/11/05,08:00,0.622,0.418,0.656,0.594,0.591,0.272,0.239,north,3.3,No
2014/11/05,08:10,0.619,0.418,0.657,0.594,0.592,0.272,0.238,north,4.2,No
2014/11/05,08:20,0.620,0.419,0.657,0.596,0.591,0.273,0.239,north-northwest,4.4,No
2014/11/05,08:30,0.623,0.419,0.657,0.595,0.591,0.273,0.238,north-northwest,4.1,No
2014/11/05,08:40,0.622,0.418,0.656,0.595,0.592,0.272,0.239,north-northwest,4.1,No
2014/11/05,08:50,0.621,0.418,0.657,0.595,0.590,0.273,0.239,north,4.7,No
2014/11/05,09:00,0.621,0.418,0.657,0.595,0.591,0.272,0.240,north-northwest,4.2,No
2014/11/05,09:10,0.622,0.419,0.656,0.596,0.591,0.273,0.239,north-northwest,3.8,No
2014/11/05,09:20,0.622,0.418,0.657,0.596,0.591,0.273,0.240,north,3.8,No
2014/11/05,09:30,0.621,0.416,0.658,0.595,0.590,0.271,0.240,north-northwest,3.4,No
2014/11/05,09:40,0.622,0.419,0.656,0.596,0.591,0.273,0.239,north-northwest,3.5,No
2014/11/05,09:50,0.621,0.418,0.658,0.596,0.591,0.272,0.240,north-northwest,4.2,No
2014/11/05,10:00,0.621,0.416,0.658,0.596,0.590,0.274,0.240,north-northwest,3.6,No
2014/11/05,10:10,0.622,0.416,0.657,0.596,0.591,0.273,0.240,north-northwest,3.1,No
2014/11/05,10:20,0.621,0.416,0.658,0.597,0.591,0.273,0.239,north-northwest,2.8,No
2014/11/05,10:30,0.621,0.416,0.656,0.595,0.592,0.273,0.238,north-northwest,2.5,No
2014/11/05,10:40,0.622,0.416,0.657,0.595,0.593,0.273,0.241,north-northwest,3.0,No
2014/11/05,10:50,0.620,0.417,0.655,0.595,0.590,0.273,0.239,north-northwest,2.4,No
2014/11/05,11:00,0.621,0.417,0.657,0.595,0.592,0.273,0.239,north-northwest,3.5,No
2014/11/05,11:10,0.621,0.417,0.658,0.594,0.593,0.272,0.240,north-northwest,2.9,No
2014/11/05,11:20,0.620,0.416,0.657,0.596,0.591,0.275,0.241,north,2.2,No
2014/11/05,11:30,0.621,0.415,0.654,0.596,0.592,0.272,0.238,north,2.7,No
2014/11/05,11:40,0.621,0.416,0.657,0.596,0.590,0.273,0.239,north-northwest,1.9,No
2014/11/05,11:50,0.623,0.415,0.658,0.595,0.594,0.272,0.239,north-northwest,1.9,No
2014/11/05,12:00,0.623,0.416,0.655,0.596,0.591,0.273,0.238,north,1.9,No
2014/11/05,12:10,0.621,0.416,0.657,0.594,0.592,0.272,0.240,north,2.3,No
2014/11/05,12:20,0.622,0.415,0.657,0.595,0.591,0.272,0.239,north,2.8,No
2014/11/05,12:30,0.622,0.415,0.657,0.595,0.591,0.272,0.240,north,2.8,No
2014/11/05,12:40,0.620,0.416,0.658,0.596,0.591,0.273,0.239,north-northwest,2.4,No
2014/11/05,12:50,0.622,0.416,0.658,0.595,0.591,0.272,0.239,north-northwest,2.1,No
2014/11/05,13:00,0.622,0.415,0.658,0.595,0.590,0.273,0.238,north-northwest,2.8,No
2014/11/05,13:10,0.623,0.415,0.657,0.595,0.591,0.271,0.240,north,2.6,No
2014/11/05,13:20,0.622,0.416,0.659,0.595,0.592,0.273,0.239,north,2.5,No
2014/11/05,13:30,0.622,0.416,0.657,0.596,0.592,0.273,0.241,north,1.9,No
2014/11/05,13:40,0.622,0.415,0.657,0.595,0.591,0.273,0.239,north,2.2,No
2014/11/05,13:50,0.621,0.415,0.658,0.596,0.588,0.273,0.240,north,1.6,No
2014/11/05,14:00,0.622,0.414,0.657,0.594,0.591,0.273,0.240,north,2.0,No
2014/11/05,14:10,0.623,0.415,0.657,0.597,0.592,0.273,0.241,north-northwest,1.8,No
2014/11/05,14:20,0.623,0.416,0.656,0.594,0.590,0.274,0.239,north,1.6,No
2014/11/05,14:30,0.624,0.415,0.657,0.594,0.592,0.271,0.240,north,1.6,No
2014/11/05,14:40,0.621,0.414,0.658,0.596,0.591,0.273,0.239,north-northwest,1.9,No
2014/11/05,14:50,0.620,0.414,0.656,0.594,0.592,0.272,0.239,north-northwest,2.2,No
2014/11/05,15:00,0.623,0.416,0.658,0.596,0.591,0.273,0.240,north-northwest,1.8,No
2014/11/05,15:10,0.623,0.415,0.657,0.596,0.590,0.272,0.240,north-northwest,1.6,No
2014/11/05,15:20,0.620,0.415,0.658,0.595,0.592,0.273,0.240,north,1.1,No
2014/11/05,15:30,0.622,0.414,0.657,0.596,0.590,0.273,0.239,north,1.3,No
2014/11/05,15:40,0.620,0.414,0.656,0.596,0.592,0.273,0.241,north,0.5,No
2014/11/05,15:50,0.622,0.414,0.658,0.594,0.589,0.272,0.239,-,CALM,No
2014/11/05,16:00,0.621,0.414,0.656,0.595,0.590,0.273,0.240,-,CALM,No
2014/11/05,16:10,0.621,0.415,0.656,0.596,0.591,0.273,0.241,north,1.4,No
2014/11/05,16:20,0.620,0.415,0.658,0.595,0.592,0.273,0.240,north-northwest,0.5,No
2014/11/05,16:30,0.620,0.414,0.656,0.596,0.591,0.273,0.241,-,CALM,No
2014/11/05,16:40,0.619,0.413,0.657,0.594,0.593,0.273,0.239,-,CALM,No
2014/11/05,16:50,0.622,0.414,0.657,0.594,0.591,0.274,0.241,-,CALM,No
2014/11/05,17:00,0.619,0.414,0.658,0.594,0.590,0.273,0.240,-,CALM,No
2014/11/05,17:10,0.620,0.413,0.657,0.594,0.591,0.272,0.239,north,0.8,No
2014/11/05,17:20,0.621,0.414,0.655,0.595,0.590,0.272,0.239,north-northwest,1.6,No
2014/11/05,17:30,0.620,0.413,0.655,0.594,0.591,0.274,0.240,northwest,1.7,No
2014/11/05,17:40,0.621,0.414,0.656,0.595,0.590,0.273,0.239,north-northwest,1.7,No
2014/11/05,17:50,0.620,0.414,0.657,0.593,0.593,0.271,0.240,north-northwest,1.1,No
2014/11/05,18:00,0.620,0.413,0.657,0.594,0.590,0.272,0.240,north-northwest,0.5,No
2014/11/05,18:10,0.618,0.414,0.657,0.595,0.590,0.273,0.240,north-northwest,0.9,No
2014/11/05,18:20,0.620,0.412,0.657,0.593,0.589,0.272,0.240,north,0.9,No
2014/11/05,18:30,0.620,0.412,0.657,0.595,0.590,0.273,0.239,north-northwest,0.8,No
2014/11/05,18:40,0.621,0.413,0.658,0.594,0.590,0.273,0.240,northwest,0.5,No
2014/11/05,18:50,0.621,0.414,0.656,0.595,0.590,0.272,0.240,-,CALM,No
2014/11/05,19:00,0.621,0.414,0.657,0.595,0.590,0.273,0.240,-,CALM,No
2014/11/05,19:10,0.621,0.413,0.657,0.595,0.592,0.273,0.239,north-northwest,0.5,No
2014/11/05,19:20,0.622,0.414,0.655,0.594,0.591,0.272,0.241,north-northwest,0.5,No
2014/11/05,19:30,0.623,0.412,0.656,0.595,0.590,0.273,0.240,north-northwest,0.9,No
2014/11/05,19:40,0.621,0.412,0.655,0.596,0.590,0.273,0.241,northwest,0.7,No
2014/11/05,19:50,0.619,0.413,0.657,0.594,0.590,0.272,0.241,-,CALM,No
2014/11/05,20:00,0.620,0.413,0.655,0.594,0.589,0.273,0.241,north,1.0,No
2014/11/05,20:10,0.619,0.414,0.657,0.594,0.591,0.273,0.241,north-northeast,1.4,No
2014/11/05,20:20,0.620,0.413,0.654,0.593,0.591,0.273,0.239,north-northeast,1.8,No
2014/11/05,20:30,0.621,0.412,0.657,0.595,0.591,0.273,0.241,north-northeast,1.8,No
2014/11/05,20:40,0.621,0.414,0.658,0.594,0.589,0.274,0.240,north-northeast,1.9,No
2014/11/05,20:50,0.620,0.414,0.655,0.595,0.590,0.273,0.241,north-northeast,1.9,No
2014/11/05,21:00,0.620,0.413,0.657,0.593,0.591,0.272,0.241,north-northeast,1.4,No
2014/11/05,21:10,0.621,0.413,0.654,0.594,0.590,0.274,0.240,north-northwest,1.0,No
2014/11/05,21:20,0.622,0.414,0.656,0.593,0.591,0.273,0.239,north,2.3,No
2014/11/05,21:30,0.620,0.414,0.656,0.595,0.590,0.273,0.240,north,1.4,No
2014/11/05,21:40,0.620,0.414,0.657,0.594,0.589,0.272,0.239,north,1.5,No
2014/11/05,21:50,0.621,0.413,0.657,0.595,0.589,0.272,0.240,north,1.9,No
2014/11/05,22:00,0.621,0.414,0.656,0.594,0.591,0.273,0.239,north-northwest,1.4,No
2014/11/05,22:10,0.620,0.413,0.657,0.594,0.590,0.272,0.239,north,1.2,No
2014/11/05,22:20,0.619,0.411,0.658,0.595,0.592,0.273,0.240,-,CALM,No
2014/11/05,22:30,0.622,0.415,0.658,0.594,0.592,0.273,0.240,-,CALM,No
2014/11/05,22:40,0.622,0.413,0.657,0.594,0.589,0.272,0.239,north,1.1,No
2014/11/05,22:50,0.620,0.414,0.656,0.594,0.589,0.273,0.240,north,2.5,No
2014/11/05,23:00,0.620,0.414,0.656,0.595,0.591,0.272,0.240,north,2.2,No
2014/11/05,23:10,0.622,0.413,0.658,0.595,0.591,0.272,0.241,north-northeast,1.9,No
2014/11/05,23:20,0.618,0.413,0.656,0.595,0.592,0.274,0.239,north-northeast,2.8,No
2014/11/05,23:30,0.620,0.413,0.656,0.595,0.591,0.273,0.240,north,2.8,No
2014/11/05,23:40,0.621,0.414,0.656,0.595,0.591,0.273,0.241,north,3.3,No
2014/11/05,23:50,0.620,0.413,0.657,0.595,0.592,0.273,0.240,north,2.5,No
